Year,Month,Day,Hour,Minute,Value (Times are PST for windspeed in km/hr)
2014,03,18,00,00,7.90
2014,03,18,00,01,8.90
2014,03,18,00,02,7.60
2014,03,18,00,03,8.30
2014,03,18,00,04,8.50
2014,03,18,00,05,8.20
2014,03,18,00,06,7.80
2014,03,18,00,07,6.90
2014,03,18,00,08,6.50
2014,03,18,00,09,5.60
2014,03,18,00,10,4.90
2014,03,18,00,11,4.30
2014,03,18,00,12,5.10
2014,03,18,00,13,5.10
2014,03,18,00,14,5.80
2014,03,18,00,15,5.20
2014,03,18,00,16,5.60
2014,03,18,00,17,7.30
2014,03,18,00,18,6.00
2014,03,18,00,19,6.80
2014,03,18,00,20,7.10
2014,03,18,00,21,7.60
2014,03,18,00,22,6.70
2014,03,18,00,23,6.30
2014,03,18,00,24,6.30
2014,03,18,00,25,3.60
2014,03,18,00,26,5.80
2014,03,18,00,27,5.50
2014,03,18,00,28,5.60
2014,03,18,00,29,5.20
2014,03,18,00,30,3.80
2014,03,18,00,31,5.50
2014,03,18,00,32,4.40
2014,03,18,00,33,3.10
2014,03,18,00,34,1.90
2014,03,18,00,35,2.30
2014,03,18,00,36,1.90
2014,03,18,00,37,3.10
2014,03,18,00,38,5.70
2014,03,18,00,39,4.00
2014,03,18,00,40,2.10
2014,03,18,00,41,3.90
2014,03,18,00,42,3.40
2014,03,18,00,43,4.10
2014,03,18,00,44,4.40
2014,03,18,00,45,3.90
2014,03,18,00,46,3.90
2014,03,18,00,47,1.60
2014,03,18,00,48,0.30
2014,03,18,00,49,1.00
2014,03,18,00,50,1.80
2014,03,18,00,51,2.70
2014,03,18,00,52,3.80
2014,03,18,00,53,3.00
2014,03,18,00,54,3.80
2014,03,18,00,55,5.30
2014,03,18,00,56,9.70
2014,03,18,00,57,6.90
2014,03,18,00,58,6.10
2014,03,18,00,59,6.80
2014,03,18,01,00,8.20
2014,03,18,01,01,7.90
2014,03,18,01,02,6.90
2014,03,18,01,03,4.70
2014,03,18,01,04,2.90
2014,03,18,01,05,1.60
2014,03,18,01,06,2.40
2014,03,18,01,07,3.20
2014,03,18,01,08,4.20
2014,03,18,01,09,4.50
2014,03,18,01,10,2.30
2014,03,18,01,11,3.40
2014,03,18,01,12,3.90
2014,03,18,01,13,2.80
2014,03,18,01,14,3.20
2014,03,18,01,15,3.20
2014,03,18,01,16,4.00
2014,03,18,01,17,4.70
2014,03,18,01,18,3.70
2014,03,18,01,19,6.10
2014,03,18,01,20,6.50
2014,03,18,01,21,4.30
2014,03,18,01,22,3.30
2014,03,18,01,23,3.70
2014,03,18,01,24,3.00
2014,03,18,01,25,0.80
2014,03,18,01,26,0.10
2014,03,18,01,27,0.30
2014,03,18,01,28,3.20
2014,03,18,01,29,4.80
2014,03,18,01,30,4.30
2014,03,18,01,31,3.90
2014,03,18,01,32,3.70
2014,03,18,01,33,3.70
2014,03,18,01,34,4.30
2014,03,18,01,35,4.10
2014,03,18,01,36,3.40
2014,03,18,01,37,4.80
2014,03,18,01,38,6.60
2014,03,18,01,39,5.90
2014,03,18,01,40,4.80
2014,03,18,01,41,7.70
2014,03,18,01,42,7.70
2014,03,18,01,43,7.90
2014,03,18,01,44,7.80
2014,03,18,01,45,7.60
2014,03,18,01,46,6.00
2014,03,18,01,47,6.20
2014,03,18,01,48,6.40
2014,03,18,01,49,6.80
2014,03,18,01,50,5.60
2014,03,18,01,51,9.40
2014,03,18,01,52,10.80
2014,03,18,01,53,10.40
2014,03,18,01,54,9.40
2014,03,18,01,55,8.50
2014,03,18,01,56,8.30
2014,03,18,01,57,8.80
2014,03,18,01,58,7.50
2014,03,18,01,59,8.00
2014,03,18,02,00,8.20
2014,03,18,02,01,6.50
2014,03,18,02,02,7.30
2014,03,18,02,03,7.20
2014,03,18,02,04,6.10
2014,03,18,02,05,4.40
2014,03,18,02,06,3.50
2014,03,18,02,07,4.50
2014,03,18,02,08,5.00
2014,03,18,02,09,4.90
2014,03,18,02,10,5.50
2014,03,18,02,11,6.30
2014,03,18,02,12,3.10
2014,03,18,02,13,4.00
2014,03,18,02,14,4.50
2014,03,18,02,15,4.70
2014,03,18,02,16,4.70
2014,03,18,02,17,5.60
2014,03,18,02,18,7.60
2014,03,18,02,19,7.30
2014,03,18,02,20,8.60
2014,03,18,02,21,9.00
2014,03,18,02,22,9.10
2014,03,18,02,23,10.20
2014,03,18,02,24,9.30
2014,03,18,02,25,8.60
2014,03,18,02,26,8.60
2014,03,18,02,27,8.80
2014,03,18,02,28,9.20
2014,03,18,02,29,9.60
2014,03,18,02,30,10.70
2014,03,18,02,31,11.20
2014,03,18,02,32,10.70
2014,03,18,02,33,10.10
2014,03,18,02,34,8.50
2014,03,18,02,35,6.80
2014,03,18,02,36,6.80
2014,03,18,02,37,7.10
2014,03,18,02,38,7.90
2014,03,18,02,39,6.40
2014,03,18,02,40,5.60
2014,03,18,02,41,6.70
2014,03,18,02,42,5.30
2014,03,18,02,43,5.10
2014,03,18,02,44,4.60
2014,03,18,02,45,4.50
2014,03,18,02,46,5.30
2014,03,18,02,47,4.90
2014,03,18,02,48,4.60
2014,03,18,02,49,4.60
2014,03,18,02,50,2.60
2014,03,18,02,51,3.50
2014,03,18,02,52,3.90
2014,03,18,02,53,5.30
2014,03,18,02,54,4.70
2014,03,18,02,55,4.60
2014,03,18,02,56,3.80
2014,03,18,02,57,3.40
2014,03,18,02,58,1.70
2014,03,18,02,59,3.40
2014,03,18,03,00,3.00
2014,03,18,03,01,3.10
2014,03,18,03,02,2.90
2014,03,18,03,06,3.40
2014,03,18,03,07,3.80
2014,03,18,03,08,3.10
2014,03,18,03,09,1.40
2014,03,18,03,10,2.70
2014,03,18,03,11,2.50
2014,03,18,03,12,2.90
2014,03,18,03,13,2.70
2014,03,18,03,14,2.20
2014,03,18,03,15,1.00
2014,03,18,03,16,0.10
2014,03,18,03,17,1.50
2014,03,18,03,18,1.20
2014,03,18,03,19,1.90
2014,03,18,03,20,1.60
2014,03,18,03,21,1.50
2014,03,18,03,22,2.10
2014,03,18,03,23,1.90
2014,03,18,03,24,3.10
2014,03,18,03,25,3.30
2014,03,18,03,26,4.00
2014,03,18,03,27,4.30
2014,03,18,03,28,3.50
2014,03,18,03,29,4.40
2014,03,18,03,30,3.90
2014,03,18,03,31,3.10
2014,03,18,03,32,4.50
2014,03,18,03,33,4.70
2014,03,18,03,34,5.60
2014,03,18,03,35,6.00
2014,03,18,03,36,7.00
2014,03,18,03,37,6.60
2014,03,18,03,38,5.80
2014,03,18,03,39,6.00
2014,03,18,03,40,6.10
2014,03,18,03,41,5.60
2014,03,18,03,42,6.40
2014,03,18,03,43,6.40
2014,03,18,03,44,5.60
2014,03,18,03,45,5.70
2014,03,18,03,46,5.10
2014,03,18,03,47,5.10
2014,03,18,03,48,4.90
2014,03,18,03,49,4.10
2014,03,18,03,50,5.50
2014,03,18,03,51,4.20
2014,03,18,03,52,5.50
2014,03,18,03,53,6.00
2014,03,18,03,54,6.70
2014,03,18,03,55,6.50
2014,03,18,03,56,5.90
2014,03,18,03,57,7.10
2014,03,18,03,58,7.30
2014,03,18,03,59,6.40
2014,03,18,04,00,6.90
2014,03,18,04,01,7.00
2014,03,18,04,02,6.90
2014,03,18,04,03,7.50
2014,03,18,04,04,8.20
2014,03,18,04,05,8.00
2014,03,18,04,06,6.80
2014,03,18,04,07,7.10
2014,03,18,04,08,7.80
2014,03,18,04,09,6.50
2014,03,18,04,10,6.80
2014,03,18,04,11,7.30
2014,03,18,04,12,7.90
2014,03,18,04,13,8.60
2014,03,18,04,14,8.70
2014,03,18,04,15,8.10
2014,03,18,04,16,8.80
2014,03,18,04,17,9.90
2014,03,18,04,18,7.50
2014,03,18,04,19,10.00
2014,03,18,04,20,10.40
2014,03,18,04,21,8.90
2014,03,18,04,22,9.70
2014,03,18,04,23,8.50
2014,03,18,04,24,6.00
2014,03,18,04,25,7.50
2014,03,18,04,26,7.20
2014,03,18,04,27,8.90
2014,03,18,04,28,8.10
2014,03,18,04,29,6.80
2014,03,18,04,30,7.40
2014,03,18,04,31,8.20
2014,03,18,04,32,7.10
2014,03,18,04,33,6.70
2014,03,18,04,34,5.20
2014,03,18,04,35,7.90
2014,03,18,04,36,6.40
2014,03,18,04,37,6.40
2014,03,18,04,38,11.00
2014,03,18,04,39,8.50
2014,03,18,04,40,10.80
2014,03,18,04,41,11.70
2014,03,18,04,42,13.90
2014,03,18,04,43,9.20
2014,03,18,04,44,11.30
2014,03,18,04,45,9.30
2014,03,18,04,46,8.40
2014,03,18,04,47,11.20
2014,03,18,04,48,9.70
2014,03,18,04,49,7.70
2014,03,18,04,50,8.20
2014,03,18,04,51,6.20
2014,03,18,04,52,4.60
2014,03,18,04,53,6.80
2014,03,18,04,54,6.40
2014,03,18,04,55,4.30
2014,03,18,04,56,5.10
2014,03,18,04,57,6.60
2014,03,18,04,58,6.60
2014,03,18,04,59,7.40
2014,03,18,05,00,5.10
2014,03,18,05,01,9.40
2014,03,18,05,02,7.10
2014,03,18,05,03,10.00
2014,03,18,05,04,10.00
2014,03,18,05,05,9.50
2014,03,18,05,06,7.10
2014,03,18,05,07,6.70
2014,03,18,05,08,6.30
2014,03,18,05,09,6.30
2014,03,18,05,10,5.20
2014,03,18,05,11,5.60
2014,03,18,05,12,5.30
2014,03,18,05,13,5.40
2014,03,18,05,14,3.90
2014,03,18,05,15,5.50
2014,03,18,05,16,6.90
2014,03,18,05,17,5.10
2014,03,18,05,18,3.60
2014,03,18,05,19,2.70
2014,03,18,05,20,3.90
2014,03,18,05,21,3.30
2014,03,18,05,22,1.90
2014,03,18,05,23,1.60
2014,03,18,05,24,0.50
2014,03,18,05,25,0.10
2014,03,18,05,26,2.40
2014,03,18,05,27,2.30
2014,03,18,05,28,3.10
2014,03,18,05,29,3.60
2014,03,18,05,30,3.90
2014,03,18,05,31,4.40
2014,03,18,05,32,2.00
2014,03,18,05,33,1.00
2014,03,18,05,34,2.80
2014,03,18,05,35,3.90
2014,03,18,05,36,2.80
2014,03,18,05,37,3.60
2014,03,18,05,38,3.50
2014,03,18,05,39,5.10
2014,03,18,05,40,7.60
2014,03,18,05,41,5.50
2014,03,18,05,42,6.80
2014,03,18,05,43,6.40
2014,03,18,05,44,8.10
2014,03,18,05,45,6.90
2014,03,18,05,46,4.70
2014,03,18,05,47,5.40
2014,03,18,05,48,7.80
2014,03,18,05,49,7.60
2014,03,18,05,50,5.70
2014,03,18,05,51,4.00
2014,03,18,05,52,5.80
2014,03,18,05,53,5.40
2014,03,18,05,54,5.80
2014,03,18,05,55,5.70
2014,03,18,05,56,5.10
2014,03,18,05,57,5.70
2014,03,18,05,58,5.60
2014,03,18,05,59,6.40
2014,03,18,06,00,6.30
2014,03,18,06,01,6.70
2014,03,18,06,02,6.40
2014,03,18,06,03,7.60
2014,03,18,06,04,7.00
2014,03,18,06,05,7.70
2014,03,18,06,06,7.00
2014,03,18,06,07,7.90
2014,03,18,06,08,9.10
2014,03,18,06,09,9.60
2014,03,18,06,10,8.50
2014,03,18,06,11,7.00
2014,03,18,06,12,6.80
2014,03,18,06,13,9.40
2014,03,18,06,14,8.70
2014,03,18,06,15,8.10
2014,03,18,06,16,11.70
2014,03,18,06,17,11.30
2014,03,18,06,18,8.50
2014,03,18,06,19,8.50
2014,03,18,06,20,8.10
2014,03,18,06,21,8.70
2014,03,18,06,22,7.40
2014,03,18,06,23,9.30
2014,03,18,06,24,10.00
2014,03,18,06,25,9.20
2014,03,18,06,26,11.30
2014,03,18,06,27,9.50
2014,03,18,06,28,7.90
2014,03,18,06,29,8.90
2014,03,18,06,30,8.20
2014,03,18,06,31,10.10
2014,03,18,06,32,8.90
2014,03,18,06,33,9.20
2014,03,18,06,34,12.00
2014,03,18,06,35,10.90
2014,03,18,06,36,8.90
2014,03,18,06,37,7.70
2014,03,18,06,38,6.90
2014,03,18,06,39,10.90
2014,03,18,06,40,12.40
2014,03,18,06,41,11.90
2014,03,18,06,42,10.50
2014,03,18,06,43,10.80
2014,03,18,06,44,12.60
2014,03,18,06,45,12.30
2014,03,18,06,46,13.20
2014,03,18,06,47,11.10
2014,03,18,06,48,10.70
2014,03,18,06,49,10.10
2014,03,18,06,50,9.70
2014,03,18,06,51,9.80
2014,03,18,06,52,12.90
2014,03,18,06,53,15.70
2014,03,18,06,54,10.90
2014,03,18,06,55,11.80
2014,03,18,06,56,11.40
2014,03,18,06,57,10.00
2014,03,18,06,58,10.70
2014,03,18,06,59,9.60
2014,03,18,07,00,11.20
2014,03,18,07,01,13.80
2014,03,18,07,02,9.00
2014,03,18,07,03,11.30
2014,03,18,07,04,11.50
2014,03,18,07,05,11.90
2014,03,18,07,06,9.80
2014,03,18,07,07,16.10
2014,03,18,07,08,13.00
2014,03,18,07,09,10.10
2014,03,18,07,10,8.40
2014,03,18,07,11,10.40
2014,03,18,07,12,8.20
2014,03,18,07,13,6.20
2014,03,18,07,14,7.60
2014,03,18,07,15,7.40
2014,03,18,07,16,13.10
2014,03,18,07,17,11.00
2014,03,18,07,18,11.30
2014,03,18,07,19,8.00
2014,03,18,07,20,8.30
2014,03,18,07,21,11.70
2014,03,18,07,22,14.30
2014,03,18,07,23,11.70
2014,03,18,07,24,10.10
2014,03,18,07,25,10.40
2014,03,18,07,26,10.80
2014,03,18,07,27,13.50
2014,03,18,07,28,10.50
2014,03,18,07,29,10.90
2014,03,18,07,30,13.00
2014,03,18,07,31,9.60
2014,03,18,07,32,14.00
2014,03,18,07,33,12.30
2014,03,18,07,34,9.30
2014,03,18,07,35,10.20
2014,03,18,07,36,8.00
2014,03,18,07,37,8.60
2014,03,18,07,38,12.10
2014,03,18,07,39,9.60
2014,03,18,07,40,7.30
2014,03,18,07,41,11.10
2014,03,18,07,42,10.80
2014,03,18,07,43,9.40
2014,03,18,07,44,16.10
2014,03,18,07,45,12.70
2014,03,18,07,46,13.40
2014,03,18,07,47,11.70
2014,03,18,07,48,16.80
2014,03,18,07,49,15.50
2014,03,18,07,50,14.10
2014,03,18,07,51,16.40
2014,03,18,07,52,13.00
2014,03,18,07,53,12.60
2014,03,18,07,54,12.20
2014,03,18,07,55,8.10
2014,03,18,07,56,8.60
2014,03,18,07,57,9.00
2014,03,18,07,58,13.00
2014,03,18,07,59,9.70
2014,03,18,08,00,10.50
2014,03,18,08,01,8.50
2014,03,18,08,02,8.90
2014,03,18,08,03,11.20
2014,03,18,08,04,9.20
2014,03,18,08,05,8.20
2014,03,18,08,06,7.90
2014,03,18,08,07,6.80
2014,03,18,08,08,9.50
2014,03,18,08,09,10.30
2014,03,18,08,10,8.40
2014,03,18,08,11,9.60
2014,03,18,08,12,12.30
2014,03,18,08,13,13.00
2014,03,18,08,14,10.20
2014,03,18,08,15,11.10
2014,03,18,08,16,7.90
2014,03,18,08,17,7.40
2014,03,18,08,18,9.00
2014,03,18,08,19,7.60
2014,03,18,08,20,7.70
2014,03,18,08,21,8.60
2014,03,18,08,22,7.40
2014,03,18,08,23,8.10
2014,03,18,08,24,8.50
2014,03,18,08,25,12.70
2014,03,18,08,26,10.30
2014,03,18,08,27,12.60
2014,03,18,08,28,7.60
2014,03,18,08,29,9.00
2014,03,18,08,30,8.90
2014,03,18,08,31,10.50
2014,03,18,08,32,8.60
2014,03,18,08,33,7.60
2014,03,18,08,34,9.40
2014,03,18,08,35,7.90
2014,03,18,08,36,9.10
2014,03,18,08,37,7.20
2014,03,18,08,38,7.10
2014,03,18,08,39,9.70
2014,03,18,08,40,8.20
2014,03,18,08,41,7.40
2014,03,18,08,42,7.40
2014,03,18,08,43,7.70
2014,03,18,08,44,9.60
2014,03,18,08,45,8.60
2014,03,18,08,46,8.50
2014,03,18,08,47,6.50
2014,03,18,08,48,9.40
2014,03,18,08,49,10.90
2014,03,18,08,50,8.10
2014,03,18,08,51,7.20
2014,03,18,08,52,7.50
2014,03,18,08,53,6.70
2014,03,18,08,54,8.60
2014,03,18,08,55,7.20
2014,03,18,08,56,7.50
2014,03,18,08,57,7.50
2014,03,18,08,58,8.80
2014,03,18,08,59,10.40
2014,03,18,09,00,8.30
2014,03,18,09,01,8.10
2014,03,18,09,02,8.40
2014,03,18,09,03,9.90
2014,03,18,09,04,9.30
2014,03,18,09,05,8.90
2014,03,18,09,06,9.00
2014,03,18,09,07,10.20
2014,03,18,09,08,7.80
2014,03,18,09,09,7.60
2014,03,18,09,10,7.80
2014,03,18,09,11,9.50
2014,03,18,09,12,8.90
2014,03,18,09,13,10.10
2014,03,18,09,14,11.50
2014,03,18,09,15,10.90
2014,03,18,09,16,9.00
2014,03,18,09,17,9.90
2014,03,18,09,18,8.70
2014,03,18,09,19,8.90
2014,03,18,09,20,8.60
2014,03,18,09,21,11.10
2014,03,18,09,22,12.80
2014,03,18,09,23,13.00
2014,03,18,09,24,10.20
2014,03,18,09,25,9.50
2014,03,18,09,26,7.80
2014,03,18,09,27,8.20
2014,03,18,09,28,6.80
2014,03,18,09,29,7.40
2014,03,18,09,30,11.70
2014,03,18,09,31,14.30
2014,03,18,09,32,11.30
2014,03,18,09,33,13.30
2014,03,18,09,34,10.20
2014,03,18,09,35,9.50
2014,03,18,09,36,8.20
2014,03,18,09,37,14.50
2014,03,18,09,38,11.60
2014,03,18,09,39,8.80
2014,03,18,09,40,9.30
2014,03,18,09,41,11.10
2014,03,18,09,42,12.20
2014,03,18,09,43,9.90
2014,03,18,09,44,10.40
2014,03,18,09,45,6.80
2014,03,18,09,46,8.20
2014,03,18,09,47,7.60
2014,03,18,09,48,9.50
2014,03,18,09,49,11.20
2014,03,18,09,50,9.20
2014,03,18,09,51,6.60
2014,03,18,09,52,8.50
2014,03,18,09,53,8.60
2014,03,18,09,54,10.00
2014,03,18,09,55,10.40
2014,03,18,09,56,11.10
2014,03,18,09,57,10.10
2014,03,18,09,58,11.20
2014,03,18,09,59,9.70
2014,03,18,10,00,9.60
2014,03,18,10,01,11.10
2014,03,18,10,02,9.90
2014,03,18,10,03,10.20
2014,03,18,10,04,10.00
2014,03,18,10,05,8.10
2014,03,18,10,06,10.30
2014,03,18,10,07,11.80
2014,03,18,10,08,14.20
2014,03,18,10,09,16.70
2014,03,18,10,10,15.00
2014,03,18,10,11,14.30
2014,03,18,10,12,13.00
2014,03,18,10,13,9.90
2014,03,18,10,14,10.50
2014,03,18,10,15,10.50
2014,03,18,10,16,9.30
2014,03,18,10,17,8.20
2014,03,18,10,18,10.20
2014,03,18,10,19,10.40
2014,03,18,10,20,12.80
2014,03,18,10,21,8.90
2014,03,18,10,22,9.90
2014,03,18,10,23,7.20
2014,03,18,10,24,6.90
2014,03,18,10,25,7.30
2014,03,18,10,26,13.90
2014,03,18,10,27,13.00
2014,03,18,10,28,11.00
2014,03,18,10,29,10.60
2014,03,18,10,30,8.80
2014,03,18,10,31,8.10
2014,03,18,10,32,12.40
2014,03,18,10,33,10.90
2014,03,18,10,34,15.00
2014,03,18,10,35,13.80
2014,03,18,10,36,14.50
2014,03,18,10,37,14.60
2014,03,18,10,38,13.60
2014,03,18,10,39,13.40
2014,03,18,10,40,14.50
2014,03,18,10,41,15.30
2014,03,18,10,42,13.00
2014,03,18,10,43,12.60
2014,03,18,10,44,10.40
2014,03,18,10,45,17.20
2014,03,18,10,46,18.40
2014,03,18,10,47,17.90
2014,03,18,10,48,13.40
2014,03,18,10,49,7.90
2014,03,18,10,50,12.00
2014,03,18,10,51,10.80
2014,03,18,10,52,7.60
2014,03,18,10,53,7.80
2014,03,18,10,54,11.00
2014,03,18,10,55,11.70
2014,03,18,10,56,7.90
2014,03,18,10,57,7.60
2014,03,18,10,58,9.80
2014,03,18,10,59,11.70
2014,03,18,11,00,12.30
2014,03,18,11,01,10.40
2014,03,18,11,02,8.00
2014,03,18,11,03,7.30
2014,03,18,11,04,6.30
2014,03,18,11,05,7.70
2014,03,18,11,06,7.90
2014,03,18,11,07,7.20
2014,03,18,11,08,7.50
2014,03,18,11,09,9.50
2014,03,18,11,10,8.70
2014,03,18,11,11,10.70
2014,03,18,11,12,16.50
2014,03,18,11,13,11.70
2014,03,18,11,14,7.80
2014,03,18,11,15,14.20
2014,03,18,11,16,15.90
2014,03,18,11,17,11.70
2014,03,18,11,18,12.10
2014,03,18,11,19,7.90
2014,03,18,11,20,8.20
2014,03,18,11,21,9.60
2014,03,18,11,22,6.80
2014,03,18,11,23,8.80
2014,03,18,11,24,9.50
2014,03,18,11,25,10.70
2014,03,18,11,26,7.80
2014,03,18,11,27,10.30
2014,03,18,11,28,8.90
2014,03,18,11,29,9.20
2014,03,18,11,30,9.70
2014,03,18,11,31,7.80
2014,03,18,11,32,8.10
2014,03,18,11,33,8.70
2014,03,18,11,34,6.50
2014,03,18,11,35,5.60
2014,03,18,11,36,12.30
2014,03,18,11,37,11.50
2014,03,18,11,38,12.80
2014,03,18,11,39,13.40
2014,03,18,11,40,14.40
2014,03,18,11,41,15.90
2014,03,18,11,42,13.50
2014,03,18,11,43,10.90
2014,03,18,11,44,13.20
2014,03,18,11,45,11.30
2014,03,18,11,46,10.40
2014,03,18,11,47,10.50
2014,03,18,11,48,12.00
2014,03,18,11,49,13.80
2014,03,18,11,50,11.10
2014,03,18,11,51,12.30
2014,03,18,11,52,9.70
2014,03,18,11,53,8.60
2014,03,18,11,54,8.70
2014,03,18,11,55,8.10
2014,03,18,11,56,8.90
2014,03,18,11,57,7.80
2014,03,18,11,58,6.70
2014,03,18,11,59,8.40
2014,03,18,12,00,9.70
2014,03,18,12,01,8.50
2014,03,18,12,02,8.30
2014,03,18,12,03,13.60
2014,03,18,12,04,10.00
2014,03,18,12,05,7.70
2014,03,18,12,06,9.40
2014,03,18,12,07,8.70
2014,03,18,12,08,9.20
2014,03,18,12,09,9.40
2014,03,18,12,10,8.10
2014,03,18,12,11,7.20
2014,03,18,12,12,7.10
2014,03,18,12,13,6.80
2014,03,18,12,14,5.60
2014,03,18,12,15,8.50
2014,03,18,12,16,9.30
2014,03,18,12,17,10.80
2014,03,18,12,18,9.70
2014,03,18,12,19,8.50
2014,03,18,12,20,10.80
2014,03,18,12,21,12.50
2014,03,18,12,22,9.50
2014,03,18,12,23,8.80
2014,03,18,12,24,6.60
2014,03,18,12,25,3.60
2014,03,18,12,26,6.10
2014,03,18,12,27,8.30
2014,03,18,12,28,8.60
2014,03,18,12,29,9.80
2014,03,18,12,30,10.20
2014,03,18,12,31,9.50
2014,03,18,12,32,7.80
2014,03,18,12,33,8.50
2014,03,18,12,34,11.90
2014,03,18,12,35,11.70
2014,03,18,12,36,9.80
2014,03,18,12,37,12.40
2014,03,18,12,38,15.00
2014,03,18,12,39,13.50
2014,03,18,12,40,11.70
2014,03,18,12,41,11.90
2014,03,18,12,42,13.20
2014,03,18,12,43,15.80
2014,03,18,12,44,10.80
2014,03,18,12,45,11.20
2014,03,18,12,46,9.90
2014,03,18,12,47,11.80
2014,03,18,12,48,11.40
2014,03,18,12,49,7.30
2014,03,18,12,50,7.70
2014,03,18,12,51,15.80
2014,03,18,12,52,14.40
2014,03,18,12,53,11.90
2014,03,18,12,54,11.80
2014,03,18,12,55,13.20
2014,03,18,12,56,17.10
2014,03,18,12,57,19.50
2014,03,18,12,58,16.30
2014,03,18,12,59,11.20
2014,03,18,13,00,14.00
2014,03,18,13,01,18.30
2014,03,18,13,02,14.60
2014,03,18,13,03,14.50
2014,03,18,13,04,16.90
2014,03,18,13,05,13.60
2014,03,18,13,06,16.50
2014,03,18,13,07,13.80
2014,03,18,13,08,15.20
2014,03,18,13,09,17.30
2014,03,18,13,10,13.40
2014,03,18,13,11,15.70
2014,03,18,13,12,10.60
2014,03,18,13,13,11.10
2014,03,18,13,14,13.00
2014,03,18,13,15,13.60
2014,03,18,13,16,10.60
2014,03,18,13,17,15.90
2014,03,18,13,18,12.50
2014,03,18,13,19,10.40
2014,03,18,13,20,13.40
2014,03,18,13,21,14.80
2014,03,18,13,22,11.70
2014,03,18,13,23,18.50
2014,03,18,13,24,19.10
2014,03,18,13,25,13.60
2014,03,18,13,26,10.10
2014,03,18,13,27,11.60
2014,03,18,13,28,10.80
2014,03,18,13,29,15.60
2014,03,18,13,30,15.70
2014,03,18,13,31,10.50
2014,03,18,13,32,16.70
2014,03,18,13,33,17.60
2014,03,18,13,34,14.10
2014,03,18,13,35,17.10
2014,03,18,13,36,18.70
2014,03,18,13,37,12.50
2014,03,18,13,38,17.00
2014,03,18,13,39,20.00
2014,03,18,13,40,18.30
2014,03,18,13,41,18.70
2014,03,18,13,42,22.40
2014,03,18,13,43,17.20
2014,03,18,13,44,13.10
2014,03,18,13,45,17.90
2014,03,18,13,46,13.70
2014,03,18,13,47,16.90
2014,03,18,13,48,16.30
2014,03,18,13,49,19.60
2014,03,18,13,50,20.40
2014,03,18,13,51,20.80
2014,03,18,13,52,18.20
2014,03,18,13,53,18.00
2014,03,18,13,54,18.70
2014,03,18,13,55,16.50
2014,03,18,13,56,10.50
2014,03,18,13,57,15.40
2014,03,18,13,58,11.00
2014,03,18,13,59,11.80
2014,03,18,14,00,9.20
2014,03,18,14,01,15.40
2014,03,18,14,02,17.90
2014,03,18,14,03,22.00
2014,03,18,14,04,20.70
2014,03,18,14,05,14.90
2014,03,18,14,06,15.20
2014,03,18,14,07,13.00
2014,03,18,14,08,8.30
2014,03,18,14,09,16.20
2014,03,18,14,10,18.00
2014,03,18,14,11,11.30
2014,03,18,14,12,10.10
2014,03,18,14,13,17.90
2014,03,18,14,14,21.20
2014,03,18,14,15,19.90
2014,03,18,14,16,16.90
2014,03,18,14,17,23.90
2014,03,18,14,18,21.50
2014,03,18,14,19,17.90
2014,03,18,14,20,19.50
2014,03,18,14,21,20.40
2014,03,18,14,22,17.20
2014,03,18,14,23,13.60
2014,03,18,14,24,18.50
2014,03,18,14,25,19.80
2014,03,18,14,26,18.70
2014,03,18,14,27,16.70
2014,03,18,14,28,22.70
2014,03,18,14,29,18.20
2014,03,18,14,30,19.60
2014,03,18,14,31,22.50
2014,03,18,14,32,19.10
2014,03,18,14,33,20.30
2014,03,18,14,34,14.80
2014,03,18,14,35,16.20
2014,03,18,14,36,14.60
2014,03,18,14,37,18.40
2014,03,18,14,38,17.70
2014,03,18,14,39,20.80
2014,03,18,14,40,22.50
2014,03,18,14,41,19.20
2014,03,18,14,42,16.50
2014,03,18,14,43,15.30
2014,03,18,14,44,19.00
2014,03,18,14,45,19.00
2014,03,18,14,46,16.30
2014,03,18,14,47,12.00
2014,03,18,14,48,14.80
2014,03,18,14,49,15.80
2014,03,18,14,50,13.00
2014,03,18,14,51,16.20
2014,03,18,14,52,19.50
2014,03,18,14,53,19.20
2014,03,18,14,54,15.20
2014,03,18,14,55,14.90
2014,03,18,14,56,16.80
2014,03,18,14,57,13.10
2014,03,18,14,58,12.20
2014,03,18,14,59,12.40
2014,03,18,15,00,16.30
2014,03,18,15,01,19.60
2014,03,18,15,02,13.00
2014,03,18,15,03,11.60
2014,03,18,15,04,15.40
2014,03,18,15,05,13.20
2014,03,18,15,06,19.30
2014,03,18,15,07,12.40
2014,03,18,15,08,16.60
2014,03,18,15,09,16.10
2014,03,18,15,10,14.60
2014,03,18,15,11,18.60
2014,03,18,15,12,13.80
2014,03,18,15,13,15.90
2014,03,18,15,14,9.10
2014,03,18,15,15,8.90
2014,03,18,15,16,14.90
2014,03,18,15,17,17.40
2014,03,18,15,18,11.30
2014,03,18,15,19,13.30
2014,03,18,15,20,10.50
2014,03,18,15,21,6.50
2014,03,18,15,22,8.40
2014,03,18,15,23,14.40
2014,03,18,15,24,14.10
2014,03,18,15,25,10.70
2014,03,18,15,26,13.60
2014,03,18,15,27,14.60
2014,03,18,15,28,10.60
2014,03,18,15,29,17.10
2014,03,18,15,30,15.30
2014,03,18,15,31,18.20
2014,03,18,15,32,17.40
2014,03,18,15,33,19.30
2014,03,18,15,34,15.20
2014,03,18,15,35,14.60
2014,03,18,15,36,18.40
2014,03,18,15,37,20.20
2014,03,18,15,38,19.70
2014,03,18,15,39,14.80
2014,03,18,15,40,14.20
2014,03,18,15,41,15.40
2014,03,18,15,42,18.60
2014,03,18,15,43,15.00
2014,03,18,15,44,18.80
2014,03,18,15,45,12.90
2014,03,18,15,46,13.20
2014,03,18,15,47,16.90
2014,03,18,15,48,24.30
2014,03,18,15,49,16.10
2014,03,18,15,50,15.90
2014,03,18,15,51,12.90
2014,03,18,15,52,19.90
2014,03,18,15,53,17.60
2014,03,18,15,54,20.20
2014,03,18,15,55,21.60
2014,03,18,15,56,15.20
2014,03,18,15,57,24.10
2014,03,18,15,58,22.00
2014,03,18,15,59,16.30
2014,03,18,16,00,16.10
2014,03,18,16,01,12.90
2014,03,18,16,02,18.00
2014,03,18,16,03,10.80
2014,03,18,16,04,15.30
2014,03,18,16,05,15.40
2014,03,18,16,06,11.40
2014,03,18,16,07,17.50
2014,03,18,16,08,18.40
2014,03,18,16,09,11.70
2014,03,18,16,10,13.30
2014,03,18,16,11,17.90
2014,03,18,16,12,14.40
2014,03,18,16,13,15.10
2014,03,18,16,14,11.00
2014,03,18,16,15,12.80
2014,03,18,16,16,15.90
2014,03,18,16,17,17.40
2014,03,18,16,18,8.60
2014,03,18,16,19,17.30
2014,03,18,16,20,14.60
2014,03,18,16,21,10.50
2014,03,18,16,22,12.10
2014,03,18,16,23,14.10
2014,03,18,16,24,15.10
2014,03,18,16,25,14.80
2014,03,18,16,26,7.90
2014,03,18,16,27,7.50
2014,03,18,16,28,12.40
2014,03,18,16,29,12.00
2014,03,18,16,30,15.30
2014,03,18,16,31,15.40
2014,03,18,16,32,10.30
2014,03,18,16,33,15.80
2014,03,18,16,34,11.40
2014,03,18,16,35,10.70
2014,03,18,16,36,21.30
2014,03,18,16,37,18.60
2014,03,18,16,38,16.80
2014,03,18,16,39,15.30
2014,03,18,16,40,15.10
2014,03,18,16,41,16.40
2014,03,18,16,42,17.60
2014,03,18,16,43,20.20
2014,03,18,16,44,18.20
2014,03,18,16,45,12.80
2014,03,18,16,46,16.30
2014,03,18,16,47,11.90
2014,03,18,16,48,11.20
2014,03,18,16,49,15.40
2014,03,18,16,50,16.60
2014,03,18,16,51,17.10
2014,03,18,16,52,17.70
2014,03,18,16,53,17.50
2014,03,18,16,54,16.40
2014,03,18,16,55,19.70
2014,03,18,16,56,17.10
2014,03,18,16,57,15.70
2014,03,18,16,58,17.90
2014,03,18,16,59,20.50
2014,03,18,17,00,19.40
2014,03,18,17,01,16.90
2014,03,18,17,02,25.40
2014,03,18,17,03,18.80
2014,03,18,17,04,17.30
2014,03,18,17,05,14.20
2014,03,18,17,06,14.70
2014,03,18,17,07,9.50
2014,03,18,17,08,15.00
2014,03,18,17,09,12.50
2014,03,18,17,10,13.80
2014,03,18,17,11,11.60
2014,03,18,17,12,12.60
2014,03,18,17,13,15.90
2014,03,18,17,14,13.80
2014,03,18,17,15,18.50
2014,03,18,17,16,15.40
2014,03,18,17,17,20.30
2014,03,18,17,18,17.10
2014,03,18,17,19,15.50
2014,03,18,17,20,15.90
2014,03,18,17,21,19.30
2014,03,18,17,22,15.90
2014,03,18,17,23,13.80
2014,03,18,17,24,13.90
2014,03,18,17,25,17.30
2014,03,18,17,26,19.40
2014,03,18,17,27,19.80
2014,03,18,17,28,13.30
2014,03,18,17,29,12.20
2014,03,18,17,30,13.90
2014,03,18,17,31,12.80
2014,03,18,17,32,8.40
2014,03,18,17,33,7.20
2014,03,18,17,34,9.20
2014,03,18,17,35,9.70
2014,03,18,17,36,9.80
2014,03,18,17,37,8.20
2014,03,18,17,38,12.30
2014,03,18,17,39,15.00
2014,03,18,17,40,17.10
2014,03,18,17,41,13.70
2014,03,18,17,42,16.20
2014,03,18,17,43,10.50
2014,03,18,17,44,10.20
2014,03,18,17,45,11.40
2014,03,18,17,46,14.40
2014,03,18,17,47,13.20